Location: Unspecified
(44.2276°N, 0.0000°E)
Time: 00:52:31
(UTC+00:00)

Cosmos 1844 - Visible Passes

Search period start: 05 April 2026 00:00
Search period end: 15 April 2026 00:00
Orbit: 821 x 866 km, 70.9° (Epoch: 29 March)

Date Brightness Start Highest point End Pass type
(mag) Time Alt. Az. Time Alt. Az. Time Alt. Az.
5 Apr 4.8 18:54:38 10° N 18:59:34 28° NE 19:04:29 10° ESE visible
5 Apr 4.4 20:38:22 10° NW 20:43:57 52° WSW 20:47:02 26° S visible
6 Apr 4.3 20:23:54 10° NNW 20:29:31 54° WSW 20:33:33 19° S visible
7 Apr 4.3 20:09:26 10° NNW 20:15:05 57° WSW 20:20:09 13° S visible
8 Apr 4.3 19:54:58 10° NNW 20:00:38 59° WSW 20:06:17 10° S visible
9 Apr 4.2 19:40:30 10° NNW 19:46:11 61° WSW 19:51:52 10° S visible
10 Apr 4.2 19:26:02 10° NNW 19:31:45 64° WSW 19:37:26 10° S visible
11 Apr 4.2 19:11:34 10° NNW 19:17:18 66° WSW 19:23:00 10° SSE visible
14 Apr 6.8 20:16:09 10° W 20:17:00 10° W 20:17:50 10° WSW visible
